DW0479 Weather Reports


time (UTC)temp
F
wind
direction
speed
knots
gust
knots
rain 1hr
in
rain 24hr
in
rain mn
in
humidity
%
barometer
mb
20260509121550 77 162 0.9 4.3 0.00 0.00 0.00 90 1013.6
20260509120551 76 163 0.9 5.2 0.00 0.00 0.00 92 1013.4
20260509120042 75 162 1.7 5.2 0.00 0.00 0.00 94 1013.1
20260509114553 74 136 0.9 3.5 0.00 0.00 0.00 94 1013.0
20260509113554 73 231 0.0 1.7 0.00 0.00 0.00 95 1013.0
20260509113031 72 231 0.0 0.9 0.00 0.00 0.00 95 1013.0
20260509111553 71 232 0.0 0.9 0.00 0.00 0.00 95 1012.9
20260509110549 71 269 0.0 0.0 0.00 0.00 0.00 95 1012.8
20260509105550 71 309 0.0 0.0 0.00 0.00 0.00 94 1012.7
20260509104552 71 309 0.0 0.0 0.00 0.00 0.00 94 1012.7
20260509103551 71 309 0.0 0.0 0.00 0.00 0.00 94 1012.7
20260509102549 71 309 0.0 0.0 0.00 0.00 0.00 94 1012.8
20260509101551 71 309 0.0 0.0 0.00 0.00 0.00 94 1012.7
20260509101024 71 309 0.0 0.0 0.00 0.00 0.00 94 1012.8
20260509095550 71 309 0.0 0.0 0.00 0.00 0.00 93 1012.8
20260509094548 72 309 0.0 0.0 0.00 0.00 0.00 93 1012.8
20260509093550 72 309 0.0 0.9 0.00 0.00 0.00 93 1012.7
20260509092546 72 309 0.0 0.0 0.00 0.00 0.00 92 1012.6
20260509091546 73 309 0.0 0.0 0.00 0.00 0.00 92 1012.6
20260509090549 74 309 0.0 0.0 0.00 0.00 0.00 92 1012.6
20260509085541 74 309 1.7 3.5 0.00 0.00 0.00 92 1012.7
20260509084539 74 308 1.7 3.5 0.00 0.00 0.00 92 1012.6
20260509083539 74 302 0.9 3.5 0.00 0.00 0.00 91 1012.6
20260509082542 74 301 0.9 2.6 0.00 0.00 0.00 90 1012.7
20260509081540 75 301 0.9 2.6 0.00 0.00 0.00 90 1012.8
20260509080539 75 301 1.7 4.3 0.00 0.00 0.00 90 1012.8
20260509075537 75 302 0.9 3.5 0.00 0.00 0.00 89 1012.8
20260509074537 75 303 0.9 3.5 0.00 0.00 0.00 89 1012.8
20260509073536 76 303 1.7 2.6 0.00 0.00 0.00 88 1012.8
20260509072535 76 304 0.9 3.5 0.00 0.00 0.00 87 1012.9
20260509071536 76 306 0.9 2.6 0.00 0.00 0.00 86 1013.0
20260509070535 76 305 1.7 3.5 0.00 0.00 0.00 86 1013.2
20260509065536 76 304 1.7 4.3 0.00 0.00 0.00 85 1013.4
20260509064536 76 301 1.7 3.5 0.00 0.00 0.00 85 1013.4
20260509063535 77 305 1.7 6.1 0.00 0.00 0.00 84 1013.4
20260509062534 77 296 1.7 4.3 0.00 0.00 0.00 84 1013.5
20260509061536 77 293 1.7 3.5 0.00 0.00 0.00 83 1013.6
20260509060533 77 298 2.6 6.1 0.00 0.00 0.00 82 1013.7
20260509055531 78 309 1.7 4.3 0.00 0.00 0.00 82 1013.8
20260509054533 78 295 2.6 6.1 0.00 0.00 0.00 81 1014.0
20260509053531 78 283 2.6 6.1 0.00 0.00 0.00 80 1014.1
20260509052530 78 285 1.7 5.2 0.00 0.00 0.00 80 1014.1
20260509051530 78 299 0.9 2.6 0.00 0.00 0.00 79 1014.2
20260509051007 78 298 0.0 1.7 0.00 0.00 0.00 79 1014.4
20260509045529 78 299 0.0 1.7 0.00 0.00 0.00 78 1014.5
20260509044533 78 299 0.0 0.0 0.00 0.00 0.00 78 1014.5
20260509043531 79 299 0.0 0.0 0.00 0.00 0.00 77 1014.6
20260509042530 79 298 0.0 1.7 0.00 0.00 0.00 76 1014.7
20260509041530 80 298 0.9 2.6 0.00 0.00 0.00 75 1014.6
20260509040528 80 298 0.9 2.6 0.00 0.00 0.00 75 1014.7
20260509035518 80 298 0.9 2.6 0.00 0.00 0.00 75 1014.7
20260509034516 80 299 0.9 1.7 0.00 0.00 0.00 74 1014.5
20260509033515 80 298 0.9 3.5 0.00 0.00 0.00 73 1014.5
20260509032516 80 281 0.9 3.5 0.00 0.00 0.00 72 1014.4
20260509031515 81 279 1.7 3.5 0.00 0.00 0.00 70 1014.5
20260509030515 82 320 2.6 6.1 0.00 0.00 0.00 69 1014.5
20260509025515 82 319 1.7 5.2 0.00 0.00 0.00 68 1014.4
20260509024515 83 310 2.6 7.8 0.00 0.00 0.00 66 1014.5
20260509023515 83 333 3.5 7.0 0.00 0.00 0.00 64 1014.3
20260509022515 84 355 2.6 7.8 0.00 0.00 0.00 64 1014.3
20260509021513 84 347 3.5 7.8 0.00 0.00 0.00 62 1014.0
20260509021010 85 333 3.5 9.6 0.00 0.00 0.00 63 1013.9
20260509015513 85 323 3.5 7.0 0.00 0.00 0.00 63 1013.9
20260509014515 85 322 2.6 7.0 0.00 0.00 0.00 63 1013.8
20260509013506 86 301 3.5 7.8 0.00 0.00 0.00 62 1013.7
20260509012506 86 289 1.7 4.3 0.00 0.00 0.00 68 1013.6
20260509011505 86 225 2.6 7.8 0.00 0.00 0.00 67 1013.4
20260509010506 86 180 4.3 9.6 0.00 0.00 0.00 67 1013.2
20260509005502 86 170 6.1 13.0 0.00 0.00 0.00 67 1012.9
20260509004503 86 136 4.3 8.7 0.00 0.00 0.00 68 1012.7
20260509003939 86 146 4.3 9.6 0.00 0.00 0.00 67 1012.8
20260509002504 87 121 3.5 7.0 0.00 0.00 0.00 66 1012.4
20260509001504 87 131 3.5 8.7 0.00 0.00 0.00 65 1012.2
20260509000458 88 179 3.5 9.6 0.00 0.00 0.00 62 1012.1
20260508235459 90 123 1.7 9.6 0.00 0.00 0.00 56 1011.8
20260508234459 91 94 0.9 3.5 0.00 0.00 0.00 50 1011.5
20260508233455 91 121 1.7 7.0 0.00 0.00 0.00 48 1011.3
20260508232452 92 116 1.7 5.2 0.00 0.00 0.00 48 1011.2
20260508231453 92 113 1.7 6.1 0.00 0.00 0.00 47 1011.2
20260508230926 92 108 2.6 7.0 0.00 0.00 0.00 48 1011.0
20260508225455 92 131 2.6 7.0 0.00 0.00 0.00 47 1011.0
20260508224931 93 158 3.5 7.8 0.00 0.00 0.00 48 1010.9
20260508223452 93 99 4.3 8.7 0.00 0.00 0.00 47 1010.9
20260508222928 93 155 5.2 11.3 0.00 0.00 0.00 46 1010.8
20260508221454 94 155 4.3 9.6 0.00 0.00 0.00 47 1010.7
20260508220451 94 107 5.2 10.4 0.00 0.00 0.00 46 1010.7
20260508215451 94 148 3.5 7.8 0.00 0.00 0.00 47 1010.7
20260508214451 94 131 3.5 9.6 0.00 0.00 0.00 46 1010.7
20260508213928 96 131 5.2 11.3 0.00 0.00 0.00 43 1010.7
20260508212450 96 29 2.6 8.7 0.00 0.00 0.00 47 1010.8
20260508212422 95 115 3.5 9.6 0.00 0.00 0.00 47 1010.8
20260508210450 95 67 1.7 5.2 0.00 0.00 0.00 47 1010.8
20260508205451 95 281 1.7 3.5 0.00 0.00 0.00 44 1011.0
20260508204451 97 301 2.6 6.1 0.00 0.00 0.00 42 1011.3
20260508203451 96 152 1.7 4.3 0.00 0.00 0.00 43 1011.4
20260508202940 95 143 3.5 6.1 0.00 0.00 0.00 45 1011.3
20260508201440 94 138 2.6 7.8 0.00 0.00 0.00 46 1011.4
20260508200442 95 139 1.7 5.2 0.00 0.00 0.00 45 1011.7
20260508195440 94 195 2.6 6.1 0.00 0.00 0.00 45 1011.8
20260508194441 95 109 2.6 7.0 0.00 0.00 0.00 46 1011.9
20260508193440 95 187 1.7 8.7 0.00 0.00 0.00 45 1012.1
20260508192444 95 94 2.6 8.7 0.00 0.00 0.00 47 1012.3
20260508191442 95 134 2.6 7.0 0.00 0.00 0.00 48 1012.4
20260508190441 95 86 4.3 10.4 0.00 0.00 0.00 47 1012.6
20260508185441 94 254 3.5 7.8 0.00 0.00 0.00 49 1012.9
20260508184440 96 309 2.6 7.8 0.00 0.00 0.00 46 1013.1
20260508183442 93 229 0.9 4.3 0.00 0.00 0.00 48 1013.4
20260508182441 92 217 1.7 6.1 0.00 0.00 0.00 49 1013.3
20260508181441 92 187 2.6 7.8 0.00 0.00 0.00 49 1013.5
20260508180442 91 205 1.7 3.5 0.00 0.00 0.00 51 1013.7
20260508175431 91 87 1.7 5.2 0.00 0.00 0.00 51 1013.8
20260508174429 91 28 4.3 8.7 0.00 0.00 0.00 53 1013.9
20260508173431 92 273 3.5 8.7 0.00 0.00 0.00 50 1013.9
20260508172429 91 152 3.5 7.0 0.00 0.00 0.00 51 1014.1
20260508171430 91 240 1.7 6.1 0.00 0.00 0.00 53 1014.3
20260508170430 91 253 3.5 9.6 0.00 0.00 0.00 51 1014.5
20260508165430 92 189 4.3 8.7 0.00 0.00 0.00 53 1014.6
20260508164430 92 338 4.3 9.6 0.00 0.00 0.00 54 1014.8
20260508163431 91 342 2.6 7.0 0.00 0.00 0.00 56 1015.0
20260508162431 88 290 3.5 10.4 0.00 0.00 0.00 57 1015.2
20260508161430 89 319 3.5 7.8 0.00 0.00 0.00 57 1015.4
20260508160431 90 244 4.3 14.8 0.00 0.00 0.00 57 1015.4
20260508155432 89 352 3.5 9.6 0.00 0.00 0.00 60 1015.5
20260508154916 88 351 4.3 8.7 0.00 0.00 0.00 60 1015.7
20260508153434 89 323 3.5 9.6 0.00 0.00 0.00 60 1015.7
20260508152431 89 350 4.3 12.2 0.00 0.00 0.00 58 1015.9
20260508151430 87 338 2.6 7.0 0.00 0.00 0.00 65 1015.8
20260508150432 86 313 2.6 6.1 0.00 0.00 0.00 67 1015.8
20260508145430 85 289 3.5 7.0 0.00 0.00 0.00 68 1016.0
20260508144418 84 308 3.5 7.8 0.00 0.00 0.00 70 1015.9
20260508143914 87 291 3.5 7.8 0.00 0.00 0.00 68 1016.0
20260508142416 87 302 4.3 9.6 0.00 0.00 0.00 68 1015.9
20260508141416 85 327 5.2 11.3 0.00 0.00 0.00 69 1016.0
20260508140418 83 302 4.3 9.6 0.00 0.00 0.00 75 1016.1
20260508135406 84 5 3.5 7.0 0.00 0.00 0.00 75 1016.0
20260508134405 82 313 3.5 7.8 0.00 0.00 0.00 78 1016.0
20260508133406 82 286 3.5 8.7 0.00 0.00 0.00 78 1015.9
20260508132406 82 343 2.6 7.0 0.00 0.00 0.00 80 1015.8
20260508131404 81 304 2.6 7.0 0.00 0.00 0.00 82 1015.9
20260508130408 81 304 3.5 8.7 0.00 0.00 0.00 84 1015.9
20260508125353 80 350 2.6 5.2 0.00 0.00 0.00 85 1015.8
20260508124350 79 355 1.7 3.5 0.00 0.00 0.00 87 1015.8
20260508123350 77 289 1.7 4.3 0.00 0.00 0.00 88 1015.8